ARIANE 5 R/B, 31308

Orbit data source: Space-Track

ARIANE 5 R/B, 31308 is space debris in HEO originally from a launch on Fri, 04 May 2007 UTC launched from the French Guiana (FRGUI). Debris objects in space refer to the collection of defunct objects orbiting the Earth. Examples of debris include non-operational satellites, rocket bodies, and fragments generated from explosions, collisions, or faulty payload assembly.

Loading next visibility...
Identifier
31308, 2007-016C
Orbit
HEO
Last TLE update
2 days ago
Origin
Manufacturer
EADS/LV
Mission
Spacecraft
Bus & Motor
ESC-A, Unknown motor
Mass
~5,000 kg wet, ~5,000 kg dry
Launch date (UTC)
2007-05-04 (18 years ago)
Launch vehicle
Unknown
Launch site
French Guiana (FRGUI)
Object type
Payload
Rocket body
Debris
Shape & HBR
Cyl + 1 Nozzle, 7 m
Radar Cross Section
41.627 m², Large (>1 m²)

Expand to show TLE details & history

TLE from 2 days ago
0 ARIANE 5 R/B
1 31308U 07016C   25188.96234788  .00007064  00000-0  95018-3 0  9993
2 31308   5.3926 216.1194 6933519  96.9308 339.7279  2.74550512164470
Epoch: 2025-07-07T23:05Z
TLE epoch observation values (Epoch: 2025-07-07T23:05:46.856Z)
Latitude
-0.00014°
Longitude
-56.25081°
Altitude
5,767.777 km
Speed
6.865 km/s
True Right ascension
14h 25m 26s
True Declination
0° 00' 00"
Sunlit
Object was in daylight at epoch
Visualization orbit readout
Latitude
-3.37149°
Longitude
161.47689°
Altitude
10,848.993 km
Speed
5.27 km/s
Apparent Right ascension
06h 02m 02s
Apparent Declination
-16° 33' 48"
Sunlit
Object is in daylight
Visualization observer readout
Local Sidereal Time
23:34:23
Azimuth
98.641° ESE
Elevation
-15.75°
Doppler factor
1
Orbital elements
Apogee altitude
30,112.085 km
Perigee altitude
229.856 km
Semi-major axis
21,549.107 km
Eccentricity
0.69335
Inclination
5.3926°
RAAN
216.1194°
Arg. of periapsis
96.9308°
True anomaly
Unknown
Mean anomaly
339.7279°
Eccentric anomaly
Unknown
Mean motion
0.68612 °/min
Orbital period
524.69 mins
BSTAR
0.00095018
Loading maneuver chart data...
Loading SW <> Apogee altitude chart data...
Loading historical data...
Loading historical data...
Loading historical data...
Loading historical data...
Loading historical data...
Loading historical data...
Loading historical data...
Other satellites on launch #16 in the year 2007 (2007-05-04 UTC)

ARIANE 5 R/B Visibility forecast

Observer location: undefined°, undefined°

Span
Click to sort rows by Start time (UTC) header in descending order
Start Az.
Max El. time (UTC)
Max El. Az.
Max El.
End time (UTC)
End Az.
444 mins2025-07-09 20:19:14.510Z235.521° WSW2025-07-09 22:04:14.510Z226.538° WSW21.163°2025-07-10 03:43:14.510Z180.72° SSW
|